{"data":{"norad_id":55432,"intl_designator":"2023-014AT","name":"STARLINK-5637","alt_names":[],"object_type":"PAYLOAD","status":"ACTIVE","operator":null,"country":"US","launch_date":"2023-01-31","launch_site_code":"AFWTR","launch_vehicle":null,"mission":null,"orbit_class":"UNKNOWN","rcs_meters":null,"size_class":null,"mass_kg":null,"dimensions":null,"purposes":["comms"],"wikipedia_slug":null,"has_3d_model":false,"image_url":null,"decayed_at":null,"tle_current":{"epoch":"2026-09-20T20:34:54.098976Z","epoch_age_seconds":65681,"freshness":"FRESH","line1":"1 55432U 23014AT  26263.85757059  .00000420  00000+0  43025-4 0  9997","line2":"2 55432  69.9995 332.3421 0003516 269.8528  90.2228 14.98329494200302","mean_motion":14.98329494,"eccentricity":0.0003516,"inclination_deg":69.9995,"raan_deg":332.3421,"arg_perigee_deg":269.8528,"mean_anomaly_deg":90.2228,"bstar":4.3025e-5,"rev_number":20030,"period_min":96.107031581933,"perigee_km":569.61376733749,"apogee_km":574.50114407874,"semimajor_km":6950.1944557081,"source":"CELESTRAK","updated_at":"2026-09-21T09:00:33.222512Z"}}}